Regional Weather Roundup
Issued by NWS

Home | Current Version | Previous Version | Text Only | Print | Product List | Glossary On
Versions: 1 2 3 4 5 6 7 8 9 10 11 12 13 14 15 16 17 18 19 20 21 22 23 24 25 26 27 28
000
ASUS45 KGTF 281610
RWRMT
MONTANA HOURLY WEATHER ROUNDUP
NATIONAL WEATHER SERVICE GREAT FALLS MT
1000 AM MDT TUE APR 28 2015

NOTE: "FAIR" INDICATES FEW OR NO CLOUDS BELOW 12000 FEET WITH NO
SIGNIFICANT WEATHER AND/OR OBSTRUCTIONS TO VISIBILITY.

MTZ001>007-043-281700-
WEST OF THE DIVIDE

CITY           SKY/WX    TMP DP  RH WIND       PRES   REMARKS
KALISPELL      MOSUNNY   55  35  47 NE9       30.16F
MISSOULA       SUNNY     48  35  60 VRB3      30.21F
BUTTE          SUNNY     46  33  60 CALM      30.23F
DEER LODGE       N/A     50  34  53 S3        30.25F
EUREKA           N/A     50  34  53 CALM      30.16
HAMILTON         N/A     52  32  46 N2        30.19F
LIBBY            N/A     50  36  57 NW3       30.16F
$$

MTZ008-052>055-281700-
SOUTHWEST MONTANA

CITY           SKY/WX    TMP DP  RH WIND       PRES   REMARKS
BOZEMAN        SUNNY     50  33  52 VRB3      30.24F
DILLON         SUNNY     48  32  53 SW8       30.24F
$$

MTZ009-010-012-014-046-048-049-054-281700-
EAST SLOPES AND CENTRAL MONTANA

CITY           SKY/WX    TMP DP  RH WIND       PRES   REMARKS
CUT BANK       SUNNY     57  30  35 SE8       30.12F
GREAT FALLS    SUNNY     59  33  37 SW13      30.14F
MALMSTROM AFB  SUNNY     60  35  39 SW6       30.14F
HELENA         SUNNY     49  34  56 VRB3      30.21F
$$

MTZ011-013-016-021-045-047-050-051-281700-
NORTH CENTRAL MONTANA

CITY           SKY/WX    TMP DP  RH WIND       PRES   REMARKS
HAVRE          SUNNY     58  35  42 E5        30.15F
LEWISTOWN      SUNNY     60  30  32 SE6       30.17F
CHINOOK          N/A     55  39  54 CALM      30.16S
FORT BENTON      N/A     57  36  44 NE3       30.16F
$$

MTZ017>020-022>042-056>058-061-062-281700-
EASTERN PLAINS

CITY           SKY/WX    TMP DP  RH WIND       PRES   REMARKS
BAKER          MOSUNNY   51  36  56 SE10      30.30F
BILLINGS       MOSUNNY   53  38  56 SW8       30.22F
GLASGOW        SUNNY     54  37  52 SE15      30.21F
JORDAN           N/A     58  40  51 S14       30.20F
LIVINGSTON     SUNNY     51  33  50 E3        30.21F
MILES CITY     SUNNY     52  37  56 S10       30.26F
SIDNEY         SUNNY     52  39  62 S10       30.29F
WOLF POINT     MOSUNNY   58  39  49 S10       30.24F
BIG TIMBER       N/A     50  32  50 W5        30.22F
FORSYTH          N/A     55  39  54 E10       30.23F
PLENTYWOOD       N/A     55  34  44 S15G21    30.25S
POPLAR           N/A     57  34  41 S14       30.26F
$$

REGIONAL REPORTS...DAKOTAS

CITY           SKY/WX    TMP DP  RH WIND       PRES   REMARKS
WILLISTON      SUNNY     54  39  57 SW7       30.29F
MINOT          MOSUNNY   59  39  47 NW6       30.27F
DICKINSON      SUNNY     53  36  52 VRB3      30.29F
BEACH          FAIR      52  36  54 S14       30.30F
CROSBY         FAIR      57  39  51 SW14      30.27S
WATFORD CITY   FAIR      54  39  58 SW7       30.28F
BISMARCK       SUNNY     56  39  53 VRB5      30.32F
GRAND FORKS    PTSUNNY   49  43  80 CALM      30.28F
FARGO          PTSUNNY   50  44  80 N8        30.28S
BUFFALO SD       N/A     50  36  58 S6        30.25F
RAPID CITY     SUNNY     50  39  66 S5        30.32F
$$

REGIONAL REPORTS...WYOMING/IDAHO/WASHINGTON

CITY           SKY/WX    TMP DP  RH WIND       PRES   REMARKS
GILLETTE       SUNNY     53  33  46 VRB7      30.27F
SHERIDAN       SUNNY     53  35  50 E3        30.25F
BUFFALO WY     SUNNY     53  31  42 SE8       30.27F
CODY           SUNNY     52  36  54 S8        30.25F
YELLOWSTONE LA   N/A     35  23  61 E3        30.37S
IDAHO FALLS    SUNNY     53  34  48 CALM      30.27F
SALMON         SUNNY     46  34  61 CALM      30.25F
BOISE          SUNNY     60  32  34 SE10      30.16F
SPOKANE        PTSUNNY   56  37  49 NE10      30.06F
$$

REGIONAL REPORTS...ALBERTA

CITY           SKY/WX    TMP DP  RH WIND       PRES   REMARKS
EDMONTON       PTSUNNY   61  36  39 S9        29.91F
CALGARY        CLOUDY    59  32  36 S9        30.00F
LETHBRIDGE     PTSUNNY   63  36  36 SW10G22   30.06F
MEDICINE HAT   PTSUNNY   66  36  32 S10       30.07F
$$

REGIONAL REPORTS...SASKATCHEWAN

CITY           SKY/WX    TMP DP  RH WIND       PRES   REMARKS
SWIFT CURRENT  SUNNY     61  32  33 SW21      30.11F
REGINA         PTSUNNY   63  37  39 SW16G23   30.18F
SASKATOON      CLOUDY    54  37  54 SW6       30.11F
$$



USA.gov is the U.S. government's official web portal to all federal, state and local government web resources and services.